{"data":{"norad_id":65558,"intl_designator":"2025-201J","name":"GEESAT-5 09","alt_names":[],"object_type":"PAYLOAD","status":"ACTIVE","operator":null,"country":"PRC","launch_date":"2025-09-08","launch_site_code":"YSLA","launch_vehicle":null,"mission":null,"orbit_class":"UNKNOWN","rcs_meters":null,"size_class":null,"mass_kg":null,"dimensions":null,"purposes":[],"wikipedia_slug":null,"has_3d_model":false,"image_url":null,"decayed_at":null,"tle_current":{"epoch":"2026-09-20T10:00:00.739872Z","epoch_age_seconds":159790,"freshness":"FRESH","line1":"1 65558U 25201J   26263.41667523  .00000846  00000+0  12648-3 0  9993","line2":"2 65558  49.9822 316.9479 0008744 273.7258  86.2680 14.84390150 55949","mean_motion":14.8439015,"eccentricity":0.0008744,"inclination_deg":49.9822,"raan_deg":316.9479,"arg_perigee_deg":273.7258,"mean_anomaly_deg":86.268,"bstar":0.00012648,"rev_number":5594,"period_min":97.009536205828,"perigee_km":609.38549276567,"apogee_km":621.61596642719,"semimajor_km":6993.6377295964,"source":"CELESTRAK","updated_at":"2026-09-21T09:00:15.426442Z"}}}